Tiempo cada hora Çayıralan

Hoy, 17 Abril, Sábado

Tiempo Temperatura Precipitaciones Viento Presión Humedad
00:00 +12°C° 0 mm 2 mps 646 mmHg 55%
01:00 +10°C° 0 mm 2 mps 646 mmHg 57%
02:00 +10°C° 0 mm 1 mps 646 mmHg 59%
03:00 +10°C° 0 mm 1 mps 646 mmHg 60%
04:00 +10°C° 0 mm 1 mps 646 mmHg 60%
05:00 +10°C° 0 mm 1 mps 646 mmHg 61%
06:00 +10°C° 0 mm 2 mps 647 mmHg 56%
07:00 +13°C° 0 mm 2 mps 648 mmHg 51%
08:00 +15°C° 0 mm 2 mps 649 mmHg 47%
09:00 +16°C° 0 mm 2 mps 649 mmHg 48%
10:00 +16°C° 0 mm 2 mps 649 mmHg 48%
11:00 +17°C° 0 mm 3 mps 649 mmHg 49%
12:00 +18°C° 0 mm 3 mps 649 mmHg 45%
13:00 +19°C° 0 mm 4 mps 649 mmHg 41%
14:00 +20°C° 0 mm 5 mps 649 mmHg 39%
15:00 +19°C° 0 mm 4 mps 649 mmHg 43%
16:00 +18°C° 0 mm 4 mps 649 mmHg 47%
17:00 +18°C° 0 mm 3 mps 649 mmHg 51%
18:00 +17°C° 0 mm 3 mps 648 mmHg 54%
19:00 +16°C° 0 mm 2 mps 648 mmHg 57%
20:00 +14°C° 0 mm 2 mps 648 mmHg 60%
21:00 +14°C° 0 mm 2 mps 648 mmHg 60%
22:00 +14°C° 0 mm 2 mps 648 mmHg 59%
23:00 +14°C° 0 mm 2 mps 648 mmHg 59%

Mañana, 18 Abril, Domingo

Tiempo Temperatura Precipitaciones Viento Presión Humedad
00:00 +14°C° 0 mm 2 mps 648 mmHg 59%
01:00 +14°C° 0 mm 2 mps 647 mmHg 58%
02:00 +13°C° 0 mm 3 mps 647 mmHg 58%
03:00 +12°C° 0 mm 3 mps 648 mmHg 58%
04:00 +12°C° 0 mm 3 mps 648 mmHg 58%
05:00 +12°C° 0 mm 3 mps 648 mmHg 58%
06:00 +12°C° 0.3 mm 3 mps 649 mmHg 64%
07:00 +12°C° 0.3 mm 4 mps 649 mmHg 71%
08:00 +12°C° 0.3 mm 4 mps 650 mmHg 77%
09:00 +13°C° 0.1 mm 4 mps 650 mmHg 71%
10:00 +15°C° 0.1 mm 5 mps 650 mmHg 64%
11:00 +16°C° 0.1 mm 6 mps 651 mmHg 57%
12:00 +16°C° 0.5 mm 5 mps 651 mmHg 58%
13:00 +16°C° 0.5 mm 5 mps 650 mmHg 58%
14:00 +17°C° 0.5 mm 4 mps 650 mmHg 58%
15:00 +17°C° 0 mm 4 mps 650 mmHg 57%
16:00 +17°C° 0 mm 4 mps 650 mmHg 57%
17:00 +17°C° 0 mm 4 mps 650 mmHg 56%
18:00 +16°C° 0 mm 3 mps 650 mmHg 60%
19:00 +15°C° 0 mm 2 mps 649 mmHg 64%
20:00 +13°C° 0 mm 1 mps 649 mmHg 68%
21:00 +13°C° 0 mm 1 mps 649 mmHg 68%
22:00 +13°C° 0 mm 1 mps 649 mmHg 67%
23:00 +13°C° 0 mm 1 mps 648 mmHg 66%

Pasado mañana, 19 Abril, Lunes

Tiempo Temperatura Precipitaciones Viento Presión Humedad
00:00 +13°C° 0 mm 1 mps 648 mmHg 66%
01:00 +13°C° 0 mm 1 mps 648 mmHg 66%
02:00 +13°C° 0 mm 1 mps 647 mmHg 66%
03:00 +13°C° 0 mm 1 mps 647 mmHg 66%
04:00 +13°C° 0 mm 1 mps 647 mmHg 66%
05:00 +13°C° 0 mm 1 mps 646 mmHg 65%
06:00 +15°C° 0 mm 2 mps 647 mmHg 59%
07:00 +17°C° 0 mm 3 mps 648 mmHg 52%
08:00 +19°C° 0 mm 3 mps 648 mmHg 45%
09:00 +19°C° 0 mm 4 mps 648 mmHg 43%
10:00 +20°C° 0 mm 4 mps 648 mmHg 40%
11:00 +21°C° 0 mm 4 mps 649 mmHg 38%
12:00 +21°C° 0 mm 4 mps 648 mmHg 36%
13:00 +22°C° 0 mm 3 mps 648 mmHg 34%
14:00 +24°C° 0 mm 2 mps 648 mmHg 32%
15:00 +23°C° 0 mm 2 mps 647 mmHg 35%
16:00 +23°C° 0 mm 2 mps 646 mmHg 37%
17:00 +23°C° 0 mm 2 mps 646 mmHg 40%
18:00 +20°C° 0 mm 3 mps 645 mmHg 40%
19:00 +19°C° 0 mm 3 mps 645 mmHg 39%
20:00 +18°C° 0 mm 3 mps 644 mmHg 39%
21:00 +18°C° 0 mm 3 mps 644 mmHg 39%
22:00 +17°C° 0 mm 3 mps 643 mmHg 39%
23:00 +17°C° 0 mm 3 mps 643 mmHg 38%

20 Abril, Martes

Tiempo Temperatura Precipitaciones Viento Presión Humedad
00:00 +17°C° 0 mm 4 mps 642 mmHg 39%
01:00 +17°C° 0 mm 5 mps 642 mmHg 39%
02:00 +17°C° 0 mm 5 mps 642 mmHg 39%
03:00 +17°C° 0 mm 5 mps 641 mmHg 40%
04:00 +16°C° 0 mm 5 mps 641 mmHg 41%
05:00 +16°C° 0 mm 5 mps 641 mmHg 43%
06:00 +17°C° 0 mm 5 mps 641 mmHg 43%
07:00 +17°C° 0 mm 6 mps 642 mmHg 43%
08:00 +18°C° 0 mm 7 mps 642 mmHg 44%
09:00 +18°C° 0 mm 7 mps 642 mmHg 43%
10:00 +18°C° 0 mm 7 mps 642 mmHg 43%
11:00 +20°C° 0 mm 7 mps 643 mmHg 43%
12:00 +20°C° 0 mm 8 mps 643 mmHg 41%
13:00 +20°C° 0 mm 8 mps 643 mmHg 40%
14:00 +20°C° 0 mm 8 mps 643 mmHg 39%
15:00 +18°C° 0 mm 7 mps 643 mmHg 38%
16:00 +17°C° 0 mm 7 mps 643 mmHg 37%
17:00 +16°C° 0 mm 6 mps 643 mmHg 36%
18:00 +14°C° 0 mm 5 mps 643 mmHg 37%
19:00 +13°C° 0 mm 3 mps 643 mmHg 38%
20:00 +12°C° 0 mm 2 mps 644 mmHg 39%
21:00 +12°C° 0 mm 2 mps 643 mmHg 39%
22:00 +11°C° 0 mm 1 mps 643 mmHg 39%
23:00 +11°C° 0 mm 1 mps 643 mmHg 40%

21 Abril, Miércoles

Tiempo Temperatura Precipitaciones Viento Presión Humedad
00:00 +10°C° 0 mm 1 mps 643 mmHg 40%
01:00 +10°C° 0 mm 1 mps 643 mmHg 41%
02:00 +9°C° 0 mm 1 mps 643 mmHg 42%
03:00 +9°C° 0 mm 1 mps 643 mmHg 45%
04:00 +8°C° 0 mm 1 mps 643 mmHg 48%
05:00 +7°C° 0 mm 1 mps 643 mmHg 51%
06:00 +9°C° 0 mm 1 mps 644 mmHg 48%
07:00 +10°C° 0 mm 1 mps 645 mmHg 44%
08:00 +12°C° 0 mm 1 mps 646 mmHg 41%
09:00 +13°C° 0 mm 2 mps 646 mmHg 39%
10:00 +14°C° 0 mm 2 mps 646 mmHg 36%
11:00 +15°C° 0 mm 2 mps 646 mmHg 34%
12:00 +16°C° 0 mm 3 mps 646 mmHg 32%
13:00 +15°C° 0 mm 4 mps 646 mmHg 31%
14:00 +17°C° 0 mm 4 mps 646 mmHg 30%
15:00 +17°C° 0 mm 4 mps 646 mmHg 31%
16:00 +15°C° 0 mm 4 mps 646 mmHg 32%
17:00 +15°C° 0 mm 5 mps 646 mmHg 33%
18:00 +13°C° 0 mm 4 mps 646 mmHg 38%
19:00 +12°C° 0 mm 3 mps 646 mmHg 43%
20:00 +10°C° 0 mm 2 mps 646 mmHg 47%
21:00 +10°C° 0 mm 2 mps 646 mmHg 48%
22:00 +9°C° 0 mm 2 mps 646 mmHg 49%
23:00 +9°C° 0 mm 2 mps 646 mmHg 49%

22 Abril, Jueves

Tiempo Temperatura Precipitaciones Viento Presión Humedad
00:00 +10°C° 0 mm 1 mps 646 mmHg 51%
01:00 +10°C° 0 mm 1 mps 646 mmHg 52%
02:00 +8°C° 0 mm 0 mps 646 mmHg 54%
03:00 +9°C° 0 mm 1 mps 646 mmHg 55%
04:00 +8°C° 0 mm 1 mps 646 mmHg 56%
05:00 +8°C° 0 mm 1 mps 646 mmHg 57%
06:00 +9°C° 0 mm 1 mps 647 mmHg 51%
07:00 +11°C° 0 mm 1 mps 647 mmHg 45%
08:00 +13°C° 0 mm 1 mps 648 mmHg 39%
09:00 +14°C° 0 mm 1 mps 648 mmHg 37%
10:00 +15°C° 0 mm 2 mps 649 mmHg 35%
11:00 +16°C° 0 mm 2 mps 649 mmHg 32%
12:00 +16°C° 0 mm 2 mps 649 mmHg 31%
13:00 +17°C° 0 mm 3 mps 649 mmHg 30%
14:00 +17°C° 0 mm 3 mps 649 mmHg 28%
15:00 +17°C° 0 mm 3 mps 648 mmHg 30%
16:00 +15°C° 0 mm 4 mps 648 mmHg 32%
17:00 +15°C° 0 mm 4 mps 648 mmHg 34%
18:00 +13°C° 0 mm 4 mps 648 mmHg 39%
19:00 +12°C° 0 mm 3 mps 648 mmHg 45%
20:00 +10°C° 0 mm 2 mps 648 mmHg 51%
21:00 +10°C° 0 mm 2 mps 648 mmHg 53%
22:00 +9°C° 0 mm 2 mps 648 mmHg 55%
23:00 +9°C° 0 mm 2 mps 648 mmHg 57%
Mostrar más

Necesitamos Su Consentimiento

Meteoprog y nuestros Proveedores de Servicios pueden almacenar y acceder a sus datos personales como cookies, identificadores de dispositivo u otras tecnologías similares de su dispositivo y procesar dichos datos para personalizar contenido y anuncios, además de ofrecer funciones de redes sociales y analizar el tráfico.

  • Almacenar y/o acceder a información en su dispositivo

    Se puede almacenar o acceder a cookies, identificadores de dispositivo u otra información de su dispositivo para los fines anteriormente indicados.

  • Anuncios y contenido personalizados, medición de anuncios y contenido, percepciones del público, y desarrollo de productos

    Los anuncios y el contenido pueden personalizarse en base a su perfil. Se pueden añadir más datos para personalizar mejor los anuncios y contenidos. Se puede medir el rendimiento de los anuncios y contenidos. Se puede obtener la percepción sobre el público que ha visto los anuncios y contenidos. Dichos datos pueden usarse para desarrollar o mejorar la experiencia del usuario, sistemas y software.

Al hacer clic en ‘Estoy De Acuerdo’ usted permitirá el uso de las cookies, identificadores de dispositivo, balizas web u otras tecnologías similares indicadas. Su configuración puede cambiarse desde el navegador de su dispositivo.

Para ciertos fines, los intereses legítimos pueden ser considerados por encima del consentimiento. Puede leer más sobre ello en nuestra Política de Privacidad y Cookies.